Wind_Speed
17 17 15 15 14 13 14 15 17 18 17 15 15 15 16 15 13 13 11 12 11 11 9 9 10 10 10 9 11 11 13 15 18 16 15 16 17 17 18 20 23 25 27
20 19 17 15 12 9 9 9 8 8 10 12 12 16 17 19 17 15 13 11 13 12 13 12 13 13 10 12 13 13 15 16 18 21 19 18 22 25 23 23 26 25 26
22 17 14 14 12 9 9 9 6 6 10 9 11 13 13 13 13 12 13 12 14 16 18 17 17 15 16 14 16 16 18 21 21 23 21 21 20 23 26 29 29 31 31
16 15 13 12 14 12 10 10 7 8 8 9 10 11 12 11 10 11 12 12 13 18 18 19 22 21 20 21 21 23 24 22 27 28 31 33 32 30 29 29 32 32 36
17 14 10 9 10 12 11 9 8 9 10 10 9 9 8 9 8 9 9 11 14 17 19 20 23 25 26 27 29 32 30 30 31 32 32 34 39 42 41 38 39 41 35
20 16 15 12 9 11 13 12 8 11 10 11 12 9 8 9 9 9 11 14 17 19 19 21 21 24 27 30 34 34 37 36 36 37 36 36 40 46 51 51 46 44 48
22 17 13 12 11 11 11 10 11 14 13 13 14 11 9 8 11 12 14 15 16 18 21 22 24 25 28 29 31 35 36 37 39 41 44 46 47 47 52 54 53 56 52
21 20 17 14 12 14 15 14 15 17 16 14 15 16 14 13 15 18 21 23 24 26 26 21 28 29 34 33 36 39 43 45 46 50 53 54 58 62 64 64 59 57 58
24 21 21 18 17 19 22 21 21 21 21 18 18 18 17 16 17 19 24 29 31 33 34 42 24 22 29 32 41 47 49 49 53 57 62 64 66 71 75 74 71 70 66
29 27 27 26 25 27 27 26 25 24 23 23 23 21 19 19 22 23 25 31 35 40 47 36 44 40 34 34 34 40 45 46 53 56 63 66 70 74 78 58 48 64 73
30 33 33 31 31 33 35 32 28 28 26 24 23 22 23 23 23 27 30 34 34 36 44 41 41 44 50 44 48 47 44 46 52 59 63 73 77 74 77 50 48 43 52
35 36 37 37 36 38 39 34 31 31 31 31 29 28 27 28 31 32 34 36 36 39 42 45 46 50 54 49 52 56 53 55 58 56 59 68 87 81 56 52 55 39 44
29 31 37 40 42 42 40 35 35 33 32 32 31 30 31 33 35 39 41 39 41 43 44 50 52 52 50 51 51 55 62 63 60 59 58 59 35 52 67 65 51 31 40
29 30 30 29 33 36 35 36 36 36 34 34 34 35 37 38 41 42 39 41 44 47 49 52 51 49 50 55 60 61 63 66 63 61 62 59 55 61 63 60 29 32 33
34 33 34 34 34 37 39 37 38 38 38 37 38 40 41 43 45 47 46 46 47 49 53 54 53 51 49 54 60 64 63 65 64 62 63 61 58 64 57 34 32 33 38
37 38 38 38 37 38 40 41 41 41 42 43 43 45 44 47 47 48 50 53 54 55 56 56 54 53 54 58 58 58 59 61 65 65 63 55 54 55 49 27 30 23 17
37 39 40 40 38 39 38 40 41 43 45 46 47 48 49 50 52 54 55 58 60 63 61 54 58 59 58 59 58 57 57 53 55 62 57 51 49 52 28 22 17 14 15
44 42 42 43 42 44 43 43 44 45 47 49 50 51 54 56 56 57 61 63 62 59 58 57 57 57 58 58 52 51 49 51 54 45 48 52 32 28 26 19 15 14 19
46 46 46 46 44 45 43 43 47 49 50 50 54 56 57 59 61 62 59 58 55 52 51 51 50 51 52 46 46 44 49 49 44 38 34 26 26 21 19 14 18 22 23
46 47 49 48 49 48 48 51 51 52 54 56 59 59 60 59 57 56 57 53 51 49 47 51 48 44 40 38 37 34 34 33 28 21 16 10 8 17 16 23 25 25 26
51 51 51 52 52 53 54 54 56 56 58 58 58 58 58 60 59 55 58 55 56 52 48 47 43 40 36 36 32 34 29 19 13 7 14 14 16 23 28 30 30 26 26
51 53 56 58 57 58 59 61 63 65 63 62 60 61 59 60 61 61 63 63 59 50 47 43 41 39 35 36 35 30 28 26 26 23 18 22 28 31 32 31 29 29 26
57 57 60 59 61 64 67 67 68 66 65 63 62 62 63 64 65 68 71 69 59 50 47 45 42 42 39 38 38 37 33 32 30 31 33 31 34 37 33 30 29 27 29
60 64 66 66 68 68 65 63 64 65 66 66 65 65 68 70 71 68 66 62 59 50 49 46 44 43 42 44 43 43 44 40 38 39 39 40 41 39 37 31 30 29 29
68 70 69 70 68 67 65 64 62 63 64 65 67 71 70 60 59 54 48 50 55 52 48 47 45 44 46 46 46 43 44 45 44 41 41 41 41 36 33 33 31 30 29
67 68 69 69 68 65 64 65 67 68 68 69 70 61 59 61 61 55 49 49 52 51 50 49 48 45 44 45 45 44 46 47 47 46 46 45 41 37 33 33 31 31 30
Wind_Direction
217 223 230 239 248 259 270 270 268 268 270 269 263 262 268 272 278 286 288 277 269 268 272 274 281 291 310 330 329 329 321 320 323 320 325 332 331 330 328 327 328 327 330
219 225 234 244 244 267 263 263 275 284 283 278 267 272 270 275 281 284 286 275 265 260 261 264 266 277 294 309 319 331 321 317 314 321 320 320 328 325 327 327 326 321 323
219 230 244 250 245 260 273 268 270 278 274 277 269 267 276 284 296 290 274 263 248 242 245 252 262 268 277 287 296 308 307 308 308 311 312 307 306 307 312 312 315 319 315
218 231 242 245 248 254 270 278 271 271 278 282 280 282 295 303 299 297 281 262 245 242 247 250 257 258 265 277 283 288 291 298 306 306 306 303 298 294 298 304 305 309 314
223 219 213 223 243 242 257 284 295 287 284 280 267 278 296 311 322 312 293 259 251 245 244 254 259 263 267 274 279 281 287 293 294 294 296 298 302 302 297 299 306 308 307
225 224 228 243 258 247 255 276 295 289 281 267 252 263 288 307 309 309 308 301 296 283 269 272 278 276 274 275 277 282 283 285 286 286 285 289 293 296 298 298 293 299 302
221 216 227 236 258 264 260 266 275 285 287 268 262 262 279 299 305 311 310 315 304 298 300 303 301 298 291 288 286 283 284 286 287 288 290 291 288 288 290 292 292 291 294
219 220 227 236 252 261 268 262 271 274 279 271 266 265 271 285 292 301 302 305 308 311 303 305 303 293 286 287 289 289 291 291 292 290 289 289 290 290 289 289 284 290 289
232 236 242 247 263 267 267 273 273 270 268 273 272 271 281 285 293 299 302 305 303 316 302 303 313 284 284 299 296 288 288 291 292 294 293 290 287 285 284 282 287 285 285
244 244 247 255 264 272 278 274 272 265 264 265 271 273 278 281 282 286 289 297 303 310 300 308 314 315 302 296 303 297 287 291 287 289 290 289 291 284 286 302 323 296 291
246 250 253 255 259 265 270 280 266 267 262 267 269 268 274 285 289 289 289 287 290 290 293 305 306 307 310 307 309 307 302 296 297 296 296 291 292 291 293 304 312 313 310
243 243 250 257 260 264 265 268 260 252 256 263 268 269 276 283 286 285 288 289 291 290 295 298 300 299 302 304 306 307 300 298 300 298 294 295 291 278 314 309 314 305 306
231 241 250 250 251 253 256 259 261 255 254 259 264 268 278 283 289 290 288 288 288 291 292 292 293 298 301 302 301 301 303 300 299 299 302 307 302 298 312 312 311 298 291
241 242 245 247 248 246 249 250 254 260 262 262 264 269 276 280 283 284 287 288 285 285 287 291 299 305 306 302 301 300 300 298 298 301 301 299 299 297 297 306 298 279 281
245 244 246 247 249 250 255 253 254 259 263 266 268 270 272 278 280 283 287 287 290 291 292 296 302 306 306 298 298 299 298 298 298 298 296 297 291 295 298 296 275 267 279
245 248 249 250 251 251 256 258 258 261 261 263 267 270 273 276 279 281 284 287 289 292 292 297 299 306 300 295 295 295 298 299 300 299 295 284 281 285 294 268 281 259 235
245 248 250 250 251 252 251 255 258 258 259 263 267 269 271 274 278 281 286 288 289 290 294 295 298 299 301 294 293 298 300 307 301 295 274 261 270 292 263 266 230 243 262
247 248 249 250 250 249 251 252 255 257 259 262 266 268 270 273 277 279 282 285 287 291 295 297 299 298 294 295 297 297 301 295 306 272 285 279 283 261 244 221 238 263 277
243 246 247 248 250 250 253 251 252 254 257 260 263 265 268 272 275 279 282 287 293 293 295 295 293 290 293 293 297 301 301 302 303 281 280 280 253 234 217 229 268 276 282
242 243 245 245 247 247 246 246 250 252 255 258 260 263 268 270 274 281 288 293 289 293 299 299 290 290 290 296 303 308 307 316 313 305 288 246 266 221 251 276 282 285 281
241 242 243 243 246 246 246 247 247 251 255 258 260 262 266 270 277 285 289 289 293 298 297 295 291 289 293 298 300 303 308 312 342 345 316 299 275 270 278 286 291 282 274
243 242 242 242 244 243 244 245 247 250 254 257 262 266 272 278 281 283 286 287 293 290 291 288 283 282 283 289 285 289 287 293 298 298 289 285 285 285 290 291 286 281 274
238 240 243 244 243 245 246 248 252 257 262 266 270 273 275 277 280 284 284 286 290 286 283 280 277 278 280 282 283 281 284 284 282 286 288 285 285 284 284 289 285 272 271
239 240 243 245 245 247 250 254 256 258 261 264 267 271 274 280 282 286 277 279 285 279 277 277 275 276 280 280 281 278 279 282 288 289 284 280 279 280 276 274 270 266 268
238 241 246 249 250 252 256 256 257 260 262 266 270 272 278 278 276 278 274 274 276 275 273 274 274 276 277 278 278 279 276 272 278 286 287 286 279 274 268 264 261 263 265
239 242 245 249 251 255 258 260 261 263 266 266 269 270 274 276 274 269 270 270 273 275 272 271 273 277 276 274 276 275 275 277 276 283 287 283 275 265 255 254 256 259 261
Height
5911 5915 5918 5920 5923 5924 5925 5925 5926 5926 5927 5929 5931 5933 5934 5934 5934 5934 5936 5936 5937 5938 5938 5938 5938 5937 5936 5936 5934 5933 5932 5930 5927 5927 5926 5924 5922 5921 5919 5918 5916 5914 5911
5907 5911 5914 5917 5919 5921 5921 5921 5922 5923 5924 5925 5927 5928 5929 5929 5929 5931 5932 5933 5934 5935 5935 5934 5934 5935 5935 5934 5932 5931 5930 5928 5928 5926 5925 5925 5922 5919 5918 5916 5913 5910 5908
5904 5908 5911 5913 5916 5917 5919 5919 5920 5921 5921 5922 5923 5924 5925 5926 5927 5927 5927 5928 5928 5927 5928 5930 5931 5932 5931 5931 5930 5929 5927 5926 5925 5923 5921 5919 5917 5915 5913 5910 5908 5905 5903
5902 5905 5908 5910 5912 5914 5915 5916 5917 5918 5919 5920 5921 5922 5922 5923 5923 5923 5923 5924 5924 5924 5925 5926 5926 5927 5927 5927 5925 5923 5921 5922 5920 5919 5917 5914 5911 5909 5908 5904 5900 5899 5897
5898 5902 5905 5906 5907 5910 5912 5913 5914 5915 5917 5918 5919 5919 5920 5920 5920 5920 5920 5920 5920 5920 5921 5922 5923 5923 5923 5922 5920 5918 5917 5917 5916 5914 5912 5909 5904 5902 5900 5897 5893 5891 5890
5895 5899 5901 5903 5905 5907 5908 5910 5911 5912 5913 5915 5916 5917 5918 5918 5919 5918 5919 5920 5921 5920 5921 5921 5922 5921 5919 5917 5915 5915 5913 5911 5907 5905 5905 5904 5901 5895 5889 5887 5886 5883 5878
5890 5895 5898 5900 5902 5904 5905 5906 5907 5908 5910 5912 5913 5915 5916 5917 5917 5917 5917 5918 5917 5918 5919 5919 5919 5919 5917 5915 5912 5909 5907 5905 5903 5899 5894 5890 5888 5887 5885 5881 5878 5875 5870
5886 5890 5894 5896 5898 5900 5901 5902 5903 5904 5906 5908 5910 5912 5913 5914 5914 5914 5913 5913 5913 5914 5915 5915 5913 5910 5907 5908 5908 5904 5902 5898 5898 5893 5889 5884 5876 5871 5869 5864 5865 5865 5861
5881 5885 5887 5891 5893 5895 5897 5899 5899 5900 5901 5903 5905 5907 5908 5910 5910 5910 5908 5906 5907 5909 5907 5905 5906 5899 5899 5898 5896 5895 5891 5889 5883 5880 5876 5875 5869 5860 5851 5847 5849 5846 5846
5875 5878 5881 5883 5887 5890 5892 5893 5894 5895 5895 5897 5899 5901 5902 5903 5904 5904 5903 5900 5900 5899 5895 5897 5898 5895 5891 5885 5883 5881 5880 5881 5873 5868 5858 5855 5851 5843 5835 5839 5833 5830 5827
5869 5870 5873 5877 5880 5883 5885 5886 5887 5889 5889 5890 5892 5893 5894 5895 5895 5896 5895 5893 5894 5891 5888 5889 5885 5884 5881 5874 5869 5867 5868 5865 5864 5857 5848 5834 5828 5826 5822 5827 5821 5818 5813
5856 5860 5865 5868 5871 5874 5876 5878 5879 5880 5882 5883 5884 5884 5885 5886 5886 5886 5885 5884 5883 5880 5879 5877 5875 5873 5871 5864 5859 5854 5852 5848 5845 5841 5835 5826 5799 5788 5808 5809 5808 5803 5800
5847 5851 5855 5858 5860 5863 5866 5868 5870 5872 5873 5875 5875 5876 5876 5876 5876 5876 5875 5875 5873 5870 5870 5866 5864 5861 5858 5853 5849 5843 5836 5830 5829 5826 5823 5818 5798 5787 5799 5798 5795 5790 5793
5840 5843 5846 5849 5852 5854 5856 5858 5860 5862 5864 5865 5866 5867 5867 5867 5866 5867 5867 5865 5864 5862 5857 5855 5853 5849 5844 5839 5834 5830 5824 5816 5814 5812 5807 5806 5800 5795 5796 5788 5783 5783 5782
5832 5835 5838 5840 5843 5845 5846 5850 5852 5853 5856 5856 5857 5856 5855 5856 5856 5857 5856 5854 5853 5851 5845 5842 5840 5838 5834 5828 5821 5815 5810 5802 5797 5794 5790 5786 5783 5781 5781 5774 5773 5772 5773
5822 5826 5828 5831 5834 5836 5838 5841 5842 5844 5845 5845 5846 5845 5846 5846 5845 5844 5843 5842 5839 5837 5836 5833 5829 5825 5819 5815 5810 5803 5796 5788 5781 5775 5771 5766 5762 5767 5767 5764 5764 5765 5766
5812 5815 5818 5820 5824 5826 5829 5829 5831 5833 5833 5833 5834 5834 5834 5834 5832 5830 5829 5827 5824 5823 5821 5820 5816 5812 5808 5802 5796 5789 5783 5777 5769 5755 5741 5738 5754 5756 5755 5755 5757 5761 5763
5800 5804 5806 5808 5812 5813 5817 5818 5820 5821 5821 5822 5823 5822 5821 5821 5820 5819 5817 5814 5812 5811 5808 5805 5801 5796 5789 5787 5783 5777 5770 5764 5758 5748 5733 5745 5738 5746 5749 5750 5753 5755 5757
5788 5790 5793 5795 5799 5801 5805 5807 5806 5808 5808 5811 5809 5809 5809 5807 5806 5806 5804 5802 5801 5798 5795 5791 5787 5783 5778 5774 5770 5764 5759 5752 5742 5740 5736 5737 5738 5740 5743 5747 5750 5750 5751
5778 5779 5781 5784 5786 5789 5792 5790 5794 5795 5796 5796 5795 5797 5795 5793 5793 5793 5791 5790 5787 5785 5782 5778 5774 5771 5768 5764 5759 5755 5751 5744 5737 5733 5733 5736 5738 5739 5742 5743 5745 5744 5743
5762 5765 5768 5771 5773 5775 5777 5780 5780 5781 5781 5781 5782 5782 5780 5779 5779 5780 5776 5775 5774 5771 5768 5765 5763 5761 5757 5755 5752 5750 5747 5742 5739 5735 5737 5737 5738 5739 5739 5738 5736 5737 5737
5747 5749 5750 5753 5757 5760 5762 5763 5763 5764 5765 5766 5767 5767 5767 5766 5764 5764 5762 5761 5759 5757 5755 5753 5751 5750 5747 5745 5744 5744 5742 5739 5736 5733 5731 5732 5732 5731 5730 5730 5731 5729 5731
5726 5731 5734 5741 5745 5745 5745 5748 5748 5750 5752 5754 5754 5753 5752 5751 5750 5749 5747 5745 5744 5743 5741 5740 5738 5738 5737 5736 5734 5734 5735 5733 5730 5727 5726 5725 5725 5723 5721 5720 5720 5722 5722
5710 5715 5718 5721 5724 5726 5730 5735 5736 5737 5738 5738 5739 5738 5736 5735 5735 5732 5729 5728 5728 5727 5726 5727 5725 5724 5723 5723 5723 5722 5723 5723 5722 5719 5715 5714 5713 5712 5710 5709 5711 5712 5713
5693 5696 5702 5703 5707 5710 5713 5716 5718 5721 5723 5723 5722 5722 5722 5721 5717 5715 5712 5713 5714 5712 5713 5712 5712 5710 5709 5710 5711 5710 5707 5707 5709 5706 5704 5703 5701 5700 5701 5700 5701 5701 5702
5675 5677 5682 5686 5690 5693 5697 5701 5702 5703 5706 5705 5705 5706 5704 5702 5699 5698 5697 5697 5697 5697 5698 5699 5698 5696 5696 5695 5695 5695 5693 5694 5692 5692 5692 5690 5689 5687 5688 5688 5690 5691 5692